| time (UTC) | temp F | wind direction | speed MPH | gust MPH | rain 1hr in | rain 24hr in | rain mn in | humidity % | barometer mb |
| 20260507235341 | 57 | 115 | 2.0 | 5.0 | 0.00 | 0.00 | 0.00 | 50 | 1013.3 |
| 20260507233840 | 57 | 125 | 1.0 | 4.0 | 0.00 | 0.00 | 0.00 | 49 | 1013.5 |
| 20260507232339 | 57 | 130 | 0.0 | 1.0 | 0.00 | 0.00 | 0.00 | 50 | 1013.6 |
| 20260507230838 | 56 | 131 | 1.0 | 2.0 | 0.00 | 0.00 | 0.00 | 51 | 1013.7 |
| 20260507225337 | 57 | 138 | 0.0 | 2.0 | 0.00 | 0.00 | 0.00 | 53 | 1013.7 |
| 20260507223836 | 57 | 142 | 0.0 | 0.0 | 0.00 | 0.00 | 0.00 | 54 | 1013.9 |
| 20260507222335 | 58 | 142 | 0.0 | 1.0 | 0.00 | 0.00 | 0.00 | 55 | 1013.9 |
| 20260507220835 | 58 | 141 | 1.0 | 2.0 | 0.00 | 0.00 | 0.00 | 55 | 1014.0 |
| 20260507214125 | 58 | 142 | 0.0 | 0.0 | 0.00 | 0.00 | 0.00 | 56 | 1014.0 |
| 20260507212624 | 59 | 142 | 0.0 | 1.0 | 0.00 | 0.00 | 0.00 | 56 | 1014.0 |
| 20260507211123 | 59 | 144 | 1.0 | 3.0 | 0.00 | 0.00 | 0.00 | 57 | 1013.9 |
| 20260507205622 | 59 | 264 | 0.0 | 0.0 | 0.00 | 0.00 | 0.00 | 57 | 1013.9 |
| 20260507204121 | 59 | 265 | 0.0 | 0.0 | 0.00 | 0.00 | 0.00 | 58 | 1013.7 |
| 20260507202621 | 60 | 265 | 0.0 | 0.0 | 0.00 | 0.00 | 0.00 | 59 | 1013.7 |
| 20260507201120 | 60 | 265 | 2.0 | 3.0 | 0.00 | 0.00 | 0.00 | 59 | 1013.5 |
| 20260507195619 | 60 | 267 | 2.0 | 4.0 | 0.00 | 0.00 | 0.00 | 60 | 1013.4 |
| 20260507194118 | 61 | 267 | 1.0 | 3.0 | 0.00 | 0.00 | 0.00 | 61 | 1012.9 |
| 20260507192617 | 61 | 273 | 2.0 | 4.0 | 0.00 | 0.00 | 0.00 | 61 | 1012.6 |
| 20260507191116 | 61 | 290 | 2.0 | 4.0 | 0.00 | 0.00 | 0.00 | 61 | 1012.6 |
| 20260507185615 | 61 | 292 | 5.0 | 8.0 | 0.00 | 0.00 | 0.00 | 62 | 1012.4 |
| 20260507184115 | 62 | 307 | 3.0 | 5.0 | 0.00 | 0.00 | 0.00 | 63 | 1012.1 |
| 20260507182614 | 62 | 342 | 4.0 | 9.0 | 0.00 | 0.00 | 0.00 | 64 | 1012.0 |
| 20260507181113 | 63 | 341 | 5.0 | 10.0 | 0.00 | 0.00 | 0.00 | 64 | 1011.8 |
| 20260507175612 | 62 | 290 | 6.0 | 10.0 | 0.00 | 0.00 | 0.00 | 66 | 1011.7 |
| 20260507174111 | 63 | 307 | 5.0 | 8.0 | 0.00 | 0.00 | 0.00 | 66 | 1011.5 |
| 20260507171926 | 63 | 317 | 5.0 | 10.0 | 0.00 | 0.00 | 0.00 | 67 | 1011.6 |
| 20260507170425 | 63 | 326 | 6.0 | 11.0 | 0.00 | 0.00 | 0.00 | 67 | 1011.4 |
| 20260507164924 | 63 | 263 | 7.0 | 11.0 | 0.00 | 0.00 | 0.00 | 67 | 1011.4 |
| 20260507163423 | 64 | 303 | 5.0 | 9.0 | 0.00 | 0.00 | 0.00 | 67 | 1011.3 |
| 20260507161922 | 64 | 327 | 5.0 | 10.0 | 0.00 | 0.00 | 0.00 | 68 | 1011.1 |
| 20260507160422 | 64 | 346 | 7.0 | 13.0 | 0.00 | 0.00 | 0.00 | 68 | 1011.1 |
| 20260507154921 | 65 | 321 | 6.0 | 11.0 | 0.00 | 0.00 | 0.00 | 68 | 1011.2 |
| 20260507153420 | 65 | 294 | 7.0 | 13.0 | 0.00 | 0.00 | 0.00 | 68 | 1011.2 |
| 20260507151919 | 65 | 309 | 6.0 | 15.0 | 0.00 | 0.00 | 0.00 | 68 | 1011.2 |
| 20260507150418 | 65 | 0 | 5.0 | 12.0 | 0.00 | 0.00 | 0.00 | 68 | 1011.2 |
| 20260507144917 | 66 | 306 | 5.0 | 13.0 | 0.00 | 0.00 | 0.00 | 68 | 1011.3 |
| 20260507143416 | 66 | 323 | 6.0 | 13.0 | 0.00 | 0.00 | 0.00 | 68 | 1011.4 |
| 20260507141916 | 66 | 298 | 7.0 | 13.0 | 0.00 | 0.00 | 0.00 | 68 | 1011.6 |
| 20260507140415 | 67 | 34 | 5.0 | 11.0 | 0.00 | 0.00 | 0.00 | 68 | 1011.7 |
| 20260507134914 | 66 | 341 | 8.0 | 12.0 | 0.00 | 0.00 | 0.00 | 68 | 1011.8 |
| 20260507133413 | 67 | 321 | 7.0 | 13.0 | 0.00 | 0.00 | 0.00 | 67 | 1011.9 |
| 20260507131912 | 66 | 206 | 8.0 | 17.0 | 0.00 | 0.00 | 0.00 | 68 | 1012.0 |
| 20260507130411 | 66 | 299 | 8.0 | 16.0 | 0.00 | 0.00 | 0.00 | 68 | 1012.0 |
| 20260507124910 | 66 | 301 | 9.0 | 14.0 | 0.00 | 0.00 | 0.00 | 68 | 1012.2 |
| 20260507123410 | 66 | 310 | 9.0 | 15.0 | 0.00 | 0.00 | 0.00 | 68 | 1012.2 |
| 20260507121909 | 69 | 282 | 7.0 | 14.0 | 0.00 | 0.00 | 0.00 | 65 | 1012.3 |
| 20260507120408 | 69 | 277 | 4.0 | 12.0 | 0.00 | 0.00 | 0.00 | 64 | 1012.4 |
| 20260507114907 | 67 | 344 | 5.0 | 9.0 | 0.00 | 0.00 | 0.00 | 65 | 1012.4 |
| 20260507113406 | 66 | 281 | 6.0 | 11.0 | 0.00 | 0.00 | 0.00 | 67 | 1012.5 |
| 20260507111905 | 67 | 298 | 5.0 | 10.0 | 0.00 | 0.00 | 0.00 | 67 | 1012.9 |
| 20260507110404 | 66 | 277 | 4.0 | 9.0 | 0.00 | 0.00 | 0.00 | 67 | 1013.1 |
| 20260507104904 | 65 | 335 | 4.0 | 9.0 | 0.00 | 0.00 | 0.00 | 67 | 1013.2 |
| 20260507103403 | 65 | 216 | 4.0 | 10.0 | 0.00 | 0.00 | 0.00 | 67 | 1013.4 |
| 20260507101902 | 66 | 284 | 3.0 | 6.0 | 0.00 | 0.00 | 0.00 | 67 | 1013.5 |
| 20260507100401 | 64 | 341 | 4.0 | 10.0 | 0.00 | 0.00 | 0.00 | 66 | 1013.7 |
| 20260507094900 | 64 | 312 | 3.0 | 7.0 | 0.00 | 0.00 | 0.00 | 67 | 1013.6 |
| 20260507093359 | 64 | 271 | 4.0 | 8.0 | 0.00 | 0.00 | 0.00 | 67 | 1013.9 |
| 20260507091858 | 64 | 0 | 1.0 | 1.0 | 0.00 | 0.00 | 0.00 | 67 | 1013.9 |
| 20260507090358 | 64 | 18 | 2.0 | 8.0 | 0.00 | 0.00 | 0.00 | 66 | 1013.6 |
| 20260507084857 | 64 | 306 | 1.0 | 5.0 | 0.00 | 0.00 | 0.00 | 64 | 1013.7 |
| 20260507083356 | 62 | 261 | 2.0 | 6.0 | 0.00 | 0.00 | 0.00 | 62 | 1013.8 |
| 20260507081855 | 63 | 317 | 2.0 | 6.0 | 0.00 | 0.00 | 0.00 | 63 | 1013.8 |
| 20260507080354 | 62 | 109 | 0.0 | 2.0 | 0.00 | 0.00 | 0.00 | 64 | 1014.0 |
| 20260507074853 | 60 | 217 | 1.0 | 3.0 | 0.00 | 0.00 | 0.00 | 62 | 1014.2 |
| 20260507073353 | 58 | 198 | 1.0 | 6.0 | 0.00 | 0.00 | 0.00 | 58 | 1014.2 |
| 20260507071852 | 56 | 198 | 2.0 | 6.0 | 0.00 | 0.00 | 0.00 | 56 | 1014.1 |
| 20260507070351 | 55 | 210 | 3.0 | 8.0 | 0.00 | 0.00 | 0.00 | 56 | 1014.1 |
| 20260507064850 | 55 | 217 | 4.0 | 10.0 | 0.00 | 0.00 | 0.00 | 58 | 1014.0 |
| 20260507063349 | 56 | 176 | 3.0 | 7.0 | 0.00 | 0.00 | 0.00 | 57 | 1013.8 |
| 20260507061848 | 56 | 198 | 3.0 | 8.0 | 0.00 | 0.00 | 0.00 | 57 | 1013.6 |
| 20260507060347 | 56 | 185 | 1.0 | 2.0 | 0.00 | 0.00 | 0.00 | 54 | 1013.5 |
| 20260507054847 | 55 | 175 | 2.0 | 7.0 | 0.00 | 0.00 | 0.00 | 50 | 1013.5 |
| 20260507053346 | 54 | 194 | 2.0 | 7.0 | 0.00 | 0.00 | 0.00 | 48 | 1013.4 |
| 20260507051845 | 53 | 172 | 2.0 | 8.0 | 0.00 | 0.00 | 0.00 | 46 | 1013.2 |
| 20260507050344 | 52 | 186 | 1.0 | 5.0 | 0.00 | 0.00 | 0.00 | 46 | 1013.1 |
| 20260507044843 | 51 | 257 | 0.0 | 2.0 | 0.00 | 0.00 | 0.00 | 49 | 1013.1 |
| 20260507043342 | 51 | 257 | 0.0 | 0.0 | 0.00 | 0.00 | 0.00 | 49 | 1013.1 |
| 20260507041841 | 52 | 260 | 0.0 | 1.0 | 0.00 | 0.00 | 0.00 | 48 | 1013.1 |
| 20260507040341 | 52 | 261 | 0.0 | 0.0 | 0.00 | 0.00 | 0.00 | 48 | 1013.1 |
| 20260507034840 | 52 | 261 | 0.0 | 1.0 | 0.00 | 0.00 | 0.00 | 46 | 1013.1 |
| 20260507033339 | 52 | 261 | 0.0 | 3.0 | 0.00 | 0.00 | 0.00 | 46 | 1013.2 |
| 20260507031838 | 51 | 267 | 0.0 | 2.0 | 0.00 | 0.00 | 0.00 | 48 | 1013.2 |
| 20260507030337 | 51 | 271 | 0.0 | 0.0 | 0.00 | 0.00 | 0.00 | 50 | 1013.2 |
| 20260507024836 | 53 | 271 | 0.0 | 2.0 | 0.00 | 0.00 | 0.00 | 47 | 1013.1 |
| 20260507023335 | 52 | 275 | 0.0 | 4.0 | 0.00 | 0.00 | 0.00 | 49 | 1013.0 |
| 20260507021835 | 52 | 283 | 0.0 | 1.0 | 0.00 | 0.00 | 0.00 | 50 | 1013.0 |
| 20260507020334 | 53 | 283 | 0.0 | 1.0 | 0.00 | 0.00 | 0.00 | 48 | 1013.0 |
| 20260507014833 | 52 | 283 | 0.0 | 2.0 | 0.00 | 0.00 | 0.00 | 50 | 1013.2 |
| 20260507013332 | 52 | 283 | 0.0 | 0.0 | 0.00 | 0.00 | 0.00 | 54 | 1013.2 |
| 20260507011831 | 53 | 283 | 0.0 | 0.0 | 0.00 | 0.00 | 0.00 | 52 | 1013.1 |
| 20260507010330 | 53 | 283 | 0.0 | 0.0 | 0.00 | 0.00 | 0.00 | 52 | 1013.2 |
| 20260507004829 | 53 | 283 | 0.0 | 0.0 | 0.00 | 0.00 | 0.00 | 53 | 1013.5 |
| 20260507003329 | 54 | 283 | 0.0 | 0.0 | 0.00 | 0.00 | 0.00 | 52 | 1013.5 |
| 20260507001828 | 54 | 283 | 0.0 | 2.0 | 0.00 | 0.00 | 0.00 | 52 | 1013.6 |
| 20260507000328 | 54 | 283 | 0.0 | 0.0 | 0.00 | 0.00 | 0.00 | 53 | 1013.6 |